TimeEST,TemperatureF,Dew PointF,Humidity,Sea Level PressureIn,VisibilityMPH,Wind Direction,Wind SpeedMPH,Gust SpeedMPH,PrecipitationIn,Events,Conditions,WindDirDegrees,DateUTC
12:53 AM,46.0,25.0,44,30.31,10.0,Calm,Calm,-,N/A,,Clear,0,2012-03-10 05:53:00
1:53 AM,43.0,25.0,49,30.31,10.0,Calm,Calm,-,N/A,,Clear,0,2012-03-10 06:53:00
2:53 AM,44.1,25.0,47,30.31,10.0,NNE,4.6,-,N/A,,Clear,20,2012-03-10 07:53:00
3:53 AM,43.0,25.0,49,30.32,10.0,NNE,3.5,-,N/A,,Clear,30,2012-03-10 08:53:00
4:53 AM,43.0,25.0,49,30.34,10.0,NE,5.8,-,N/A,,Clear,40,2012-03-10 09:53:00
5:53 AM,42.1,24.1,49,30.37,10.0,NNE,6.9,-,N/A,,Clear,20,2012-03-10 10:53:00
6:53 AM,42.1,23.0,47,30.40,10.0,NNE,6.9,-,N/A,,Clear,20,2012-03-10 11:53:00
7:53 AM,43.0,24.1,47,30.42,10.0,NE,6.9,-,N/A,,Clear,50,2012-03-10 12:53:00
8:53 AM,46.9,24.1,41,30.43,10.0,NE,11.5,-,N/A,,Clear,50,2012-03-10 13:53:00
9:53 AM,51.1,23.0,33,30.45,10.0,NE,12.7,-,N/A,,Clear,50,2012-03-10 14:53:00
10:53 AM,53.1,19.9,27,30.45,10.0,East,11.5,-,N/A,,Clear,80,2012-03-10 15:53:00
11:53 AM,55.9,19.9,25,30.45,10.0,NNE,3.5,-,N/A,,Clear,30,2012-03-10 16:53:00
12:53 PM,59.0,17.1,20,30.44,10.0,ESE,5.8,-,N/A,,Clear,110,2012-03-10 17:53:00
1:53 PM,60.1,17.1,19,30.42,10.0,NE,6.9,-,N/A,,Clear,50,2012-03-10 18:53:00
2:53 PM,60.1,12.9,16,30.40,10.0,NE,9.2,-,N/A,,Clear,40,2012-03-10 19:53:00
3:53 PM,62.1,14.0,15,30.39,10.0,East,6.9,-,N/A,,Clear,90,2012-03-10 20:53:00
4:53 PM,61.0,14.0,16,30.38,10.0,NE,9.2,-,N/A,,Clear,50,2012-03-10 21:53:00
5:53 PM,59.0,16.0,19,30.39,10.0,ENE,8.1,-,N/A,,Clear,60,2012-03-10 22:53:00
6:53 PM,53.1,19.9,27,30.41,10.0,SE,4.6,-,N/A,,Clear,130,2012-03-10 23:53:00
7:53 PM,50.0,21.9,33,30.43,10.0,East,4.6,-,N/A,,Clear,100,2012-03-11 00:53:00
8:53 PM,48.0,24.1,39,30.44,10.0,ENE,6.9,-,N/A,,Clear,70,2012-03-11 01:53:00
9:53 PM,46.0,24.1,42,30.46,10.0,ENE,3.5,-,N/A,,Clear,70,2012-03-11 02:53:00
10:53 PM,46.9,24.1,41,30.47,10.0,NNE,4.6,-,N/A,,Clear,30,2012-03-11 03:53:00
11:53 PM,42.1,26.1,53,30.48,10.0,Calm,Calm,-,N/A,,Clear,0,2012-03-11 04:53:00